CAPE
1075 1041 1273 1750 1657 1648 1867 2281 2310 2152 2172 2276 2158 2068 1995 1952 1851 1846 1805 1755 1754 1551 1584 1699 1678 1652 1611 1550 1505 1441 1422 1528 1442 1316 1445 1517 1621 1690 1802 1931 1916 1735 1610 1560 1440 1426 1474 1840 1700 1248 991 964 999 1002 1147 1173 1639 1734 1668 1521 1297 989 749 741 628 526 237 84 127 282 191 164 324 450 366 122 69 95 25 4 0 0 24 422 474
1241 899 1273 1494 1666 1767 1944 2206 2196 2264 2311 2221 2166 2066 1972 1923 1879 1842 1810 1750 1666 1682 1764 1722 1742 1639 1564 1552 1523 1463 1491 1559 1593 1551 1690 1709 1696 1748 1855 1959 1897 1812 1911 1906 1917 2019 2067 1764 1439 1275 1176 1146 1150 1341 1716 1766 1807 1592 1334 1226 1089 934 857 544 256 166 300 349 153 76 181 409 398 348 388 97 14 19 6 10 9 0 8 486 484
1180 860 1255 1483 1732 1854 1962 2188 2299 2300 2310 2256 2220 2060 2028 1935 1937 1875 1789 1784 1754 1840 1758 1754 1709 1611 1581 1527 1576 1494 1355 1407 1531 1506 1549 1796 1834 1768 1638 1507 1498 1791 1844 1969 2066 2014 1671 1449 1362 1334 1330 1371 1174 1127 1573 1635 1553 1367 1192 973 940 892 777 631 604 588 330 240 324 498 417 354 306 453 488 100 56 36 24 14 2 4 7 206 400
963 911 1233 1676 1739 1870 2036 2216 2216 2196 2192 2249 2176 2118 2074 2031 1915 1844 1822 1885 1932 1796 1728 1687 1582 1487 1564 1478 1494 1545 1440 1368 1484 1521 1507 1511 1556 1553 1488 1476 1516 1424 1609 1769 1571 1512 1462 1365 1401 1339 1291 1163 1064 1054 1295 1574 1523 1445 1350 1242 984 806 632 581 766 570 422 546 734 574 293 92 202 820 569 248 39 8 17 9 3 7 90 171 229
987 952 1354 1436 1329 1852 2023 2042 2094 2106 2135 2212 2191 2103 2030 2004 1941 1997 1988 1896 1881 1771 1688 1646 1567 1509 1392 1405 1511 1521 1508 1468 1429 1442 1417 1358 1388 1342 1344 1390 1510 1355 1308 1381 1430 1312 1276 1346 1373 1288 997 918 932 1043 1104 849 1346 1280 1302 1310 1254 1279 1123 779 729 802 525 633 1009 740 242 63 297 835 918 512 159 13 18 22 12 8 9 104 166
879 810 1101 1178 866 1492 1927 2024 2066 2122 2168 2111 2047 2034 1988 1907 1983 2014 1930 1826 1765 1720 1693 1640 1582 1473 1480 1489 1542 1535 1542 1511 1396 1332 1282 1249 1613 1465 1372 1291 1346 1392 1346 1257 1325 1168 1143 1187 1296 1124 1056 982 884 901 1117 1129 1022 1075 1055 1111 1196 1208 1121 1313 1194 1030 736 865 762 909 334 62 97 196 394 628 175 37 12 14 62 30 20 2 44
823 792 947 952 790 1464 1868 1938 1898 2081 2028 2000 2022 1977 1867 1919 1941 1930 1888 1808 1772 1752 1661 1597 1599 1609 1566 1559 1576 1497 1458 1460 1378 1340 1322 1171 1240 1638 1191 1099 1148 1268 1207 1146 1105 1067 1118 1142 1123 1060 998 988 897 953 913 1084 1029 968 976 1062 992 1108 1084 919 1248 1028 1275 1499 1085 1521 404 338 119 85 492 636 263 48 5 22 55 16 3 2 114
576 747 820 803 830 1700 1832 1708 1884 1999 1944 2015 1988 1964 1915 1975 1960 1909 1868 1836 1768 1709 1641 1564 1609 1601 1481 1506 1536 1482 1505 1481 1475 1602 2006 1828 1792 1742 1392 924 1104 1182 1109 1144 1099 990 1018 1002 1022 1006 954 994 976 927 1101 1075 987 940 912 911 1031 1012 1089 1007 1113 1070 1108 1057 1120 706 480 522 163 95 586 659 283 138 57 8 58 39 23 7 7
545 567 850 874 1165 1753 1839 1854 1870 1922 1934 1922 1927 1923 1979 1999 1917 1912 1891 1821 1718 1629 1655 1534 1490 1516 1513 1518 1601 1516 1543 1647 1671 1901 2020 1639 1487 1472 1583 1202 1076 1055 1141 1652 1553 1408 1097 961 1021 1102 1178 1037 1001 1179 1110 1105 1083 1056 995 949 1089 1121 868 1134 1192 1370 1267 1610 700 577 541 342 182 174 344 665 536 199 66 4 6 3 10 8 7
520 710 925 1091 1084 1814 1840 1873 1911 1908 1936 1994 1970 2041 2016 1961 1941 1875 1809 1694 1630 1727 1682 1613 1646 1582 1591 1537 1534 1488 1574 1704 1702 1838 1855 1879 1719 1152 1103 1091 1148 1210 1214 1102 1057 978 958 1008 962 1220 1206 941 1137 1147 1140 1185 1038 1048 976 946 1107 1089 1063 942 1214 1313 1182 585 654 416 424 225 124 105 248 642 589 288 39 0 5 6 4 4 7
537 596 1092 982 1275 1714 1763 1861 1920 1826 1856 1977 2011 1989 1970 1885 1807 1790 1706 1734 1783 1760 1729 1772 1754 1708 1689 1626 1551 1485 1653 1714 1722 1773 1831 1757 1709 1472 1152 1200 1143 1085 1070 994 925 922 950 1116 1408 1386 1097 1080 1175 1233 1171 1136 1088 974 1195 1358 1027 1051 1256 1124 1356 1028 1750 362 725 484 543 458 144 152 302 581 559 264 125 38 6 2 12 16 8
674 998 1080 1134 1670 1557 1783 1963 1978 1988 1812 1801 1861 1832 1875 1810 1800 1792 1817 1718 1698 1808 1846 1879 1986 1740 1598 1529 1446 1516 1491 1676 1682 1776 1741 1616 1627 1602 1322 1165 1071 985 910 897 855 917 999 1546 1487 1292 1330 1311 1296 1441 1416 1366 1408 1342 1269 1475 1309 1328 1336 1500 1338 764 382 706 567 778 481 186 307 866 962 825 529 308 203 149 51 10 4 12 23
906 955 1223 1352 1303 1615 1828 1872 1936 1939 1761 1795 1702 1706 1635 1746 1757 1820 1895 1925 1984 1926 1986 1921 1824 1795 1371 1448 1378 1584 1572 1615 1607 1537 1582 1593 1660 1657 1418 1133 1103 1024 969 929 1395 1505 1380 1543 1481 1516 1433 1463 1402 1336 1403 1344 1183 1207 1103 1150 1132 851 900 1400 1018 900 575 660 511 381 345 674 712 1069 1217 1147 773 384 183 87 9 7 8 7 7
1242 1381 1370 1256 1208 1734 1778 1808 1852 1933 1862 1864 1808 1744 1766 1816 1881 1971 2039 2114 2070 2086 1968 1890 1678 1631 1493 1418 1582 1485 1465 1461 1464 1317 1345 1258 1176 1455 1377 1182 1160 1140 1076 1102 1560 1786 1758 1678 1540 1387 1376 1361 1354 1335 1227 1187 1080 968 875 784 1181 1090 1333 1650 1385 1115 507 502 615 547 383 461 841 1189 1042 1080 931 492 163 47 13 22 9 6 4
1746 1326 1035 1184 1155 1523 1965 1822 1850 1903 1822 1768 1792 1891 1990 2056 2088 2054 2095 2052 1981 1911 1881 1823 1708 1568 1379 1491 1399 1576 1525 1419 1492 1286 1240 1233 1243 1308 1255 1225 1300 1311 1366 1495 1484 1511 1627 1532 1432 1398 1318 1205 1166 1179 1216 1128 1002 940 972 1218 1525 1491 1706 1557 1450 589 471 863 752 576 440 731 1329 961 899 806 714 619 358 48 10 25 7 4 2
1420 1316 1156 1148 970 1477 1557 1755 1976 1923 1872 1868 1893 1972 1997 1986 2008 2067 2096 2070 1891 1821 1772 1680 1630 1648 1670 1704 1596 1556 1584 1553 1526 1400 1387 1346 1405 1330 1326 1376 1476 1528 1448 1326 1306 1325 1227 1268 1281 1240 1244 1186 1172 1122 1158 1080 960 882 943 1578 1640 1735 1845 1856 1546 616 353 656 669 585 477 883 1289 903 695 521 393 334 310 228 53 4 4 3 5
1440 1298 1129 916 1178 1164 1435 1583 1846 1965 1927 1934 1904 1923 1878 1910 1983 2051 2074 2027 1867 1753 1748 1616 1425 1820 1809 1747 1587 1522 1527 1438 1510 1505 1607 1567 1361 1312 1365 1461 1416 1389 1402 1305 1222 1166 1146 1083 1177 1229 1132 1111 899 930 1052 901 780 1347 1168 1475 1579 1779 1879 2026 1688 1040 558 713 717 547 518 770 930 682 531 450 364 256 234 244 262 116 53 8 0
1413 1302 1094 1108 868 879 953 1435 1726 1802 1973 2022 2032 1999 1996 1927 1907 1971 2013 1975 1931 1846 1729 1534 1482 1653 1668 1746 1721 1637 1684 1712 1716 1682 1594 1554 1417 1384 1448 1448 1383 1329 1243 1129 1048 1208 1237 1258 1210 1110 1094 922 881 960 1058 1077 1100 1512 1457 1579 1627 1782 2054 1981 1522 803 1032 925 801 645 571 780 765 520 456 386 398 372 340 271 235 127 28 18 5
1347 1211 1089 799 625 522 1164 1396 1378 1399 1800 1807 1781 1587 1918 1577 1875 1927 1853 1903 1950 1920 1694 1585 1603 1747 1781 1710 1744 1722 1691 1795 1870 1738 1664 1580 1439 1429 1426 1386 1387 1244 1222 1089 1023 1107 1076 968 1078 1036 987 1007 842 1027 945 994 796 999 1624 1651 1716 2077 1996 2224 1786 562 952 895 760 664 612 840 721 434 439 430 393 426 434 175 156 75 58 64 18
1402 1236 1054 937 906 1101 989 1440 1230 1333 1593 1454 1038 1518 1806 1985 1972 1867 1923 1859 1821 1855 1887 1825 1820 1848 1795 1846 1825 1807 1717 1805 1860 1784 1738 1682 1448 1307 1353 1344 1304 1251 1138 1066 994 883 872 982 877 979 1079 984 1035 846 1026 979 1084 1030 1461 1679 1998 2180 1968 1880 598 658 664 713 655 691 903 777 633 567 547 474 402 407 474 375 249 146 61 42 42
1778 1254 878 688 942 1092 983 911 966 1284 1385 938 829 1203 1333 1564 1702 1720 1696 1826 1914 1869 1926 1832 1690 1680 1714 1081 777 941 1358 1933 1804 1609 1690 1536 1594 1404 1333 1427 1338 1116 1041 963 924 953 895 943 1072 865 1087 997 992 996 990 920 951 1148 1106 1757 2149 1625 1711 1463 536 779 737 739 777 858 1024 699 627 610 596 448 374 422 433 415 490 294 196 180 163
1461 1170 1077 848 1060 1113 862 761 852 1040 1132 724 760 756 932 1228 1401 1461 1445 1660 1663 1707 1602 1482 1334 930 808 614 556 738 922 1189 1807 1630 1632 1639 1512 1462 1419 1385 1324 1242 1026 870 841 728 740 628 682 795 703 864 771 769 754 923 885 844 1415 1789 1834 1787 1671 1097 1221 589 711 765 890 1250 1348 860 793 716 592 502 453 443 408 519 562 367 298 247 181
1467 1272 1028 849 1022 529 706 676 875 1295 1160 705 610 695 822 970 1156 1338 1298 1232 1269 1126 1171 995 977 627 588 659 685 614 812 923 1643 1094 1412 1484 1623 1519 1406 1404 1391 1274 1196 1010 869 798 593 689 632 582 632 765 829 509 250 346 655 1126 1398 1469 1848 1774 1674 1202 763 733 528 741 904 1492 1251 890 780 623 536 344 546 494 444 575 617 408 245 152 79
1587 1355 1215 1021 912 689 789 897 1165 986 761 648 695 715 754 868 1119 1161 1294 1288 1278 1048 912 810 753 563 651 719 620 695 762 927 1676 987 1181 1598 1627 1535 1519 1421 1334 1340 1277 1152 1147 904 877 758 777 813 776 515 218 436 291 330 489 567 1067 1511 1664 1785 1640 1185 676 658 720 1006 1078 1426 1319 1410 764 708 559 463 555 599 588 556 551 532 260 121 92
1281 1216 1328 952 881 693 944 806 979 1350 858 761 644 714 730 806 1146 1274 1360 1251 925 1031 852 870 779 702 834 858 814 907 968 1539 1314 1494 1292 1196 1304 1469 1612 1219 1230 1079 1329 713 694 820 916 559 354 559 428 317 338 504 739 411 736 661 881 1564 1521 1553 1422 1378 509 574 547 861 1261 1458 1356 1045 767 690 506 316 676 610 563 586 538 476 430 198 126
1154 1178 1392 977 908 812 901 1260 1146 1034 1071 798 929 611 706 1002 1015 1220 1165 952 1267 1039 1156 900 680 593 678 804 762 859 1137 1568 1065 1310 1421 1555 1128 799 1158 1268 475 681 1142 784 666 624 877 830 522 224 253 384 450 634 766 839 882 663 1052 1411 1622 1657 1305 980 936 501 664 1013 1294 1336 1188 1069 770 635 570 394 378 598 567 607 530 498 494 366 190
1258 1274 1121 900 711 896 1034 1179 1015 996 876 926 1083 1148 1136 1000 965 1272 976 981 888 1102 1196 1035 723 602 646 996 860 794 1009 1511 1124 882 1036 1246 1471 1467 1422 1069 584 375 462 790 520 689 662 680 1094 1023 906 794 220 201 211 549 570 698 972 1200 1279 1322 1279 1077 887 594 667 947 1304 1386 1223 1030 806 603 629 516 427 479 685 667 622 514 466 428 248
1288 976 799 667 820 821 1005 1223 1148 911 876 1104 1271 1030 1316 1052 1027 1516 623 755 683 925 1488 1113 797 837 940 1011 1109 811 965 1420 1113 898 913 1206 1262 1281 1346 1141 1121 887 742 555 804 537 677 1150 1047 1017 990 485 97 203 115 260 706 634 944 1117 1192 1069 1129 793 968 647 539 818 1160 1288 1271 1019 830 673 640 602 554 486 426 603 603 492 457 449 253
1329 1192 1091 1059 798 1007 1186 1235 1168 1021 1327 1274 976 973 1448 1404 1097 773 502 739 723 835 986 1198 1045 968 948 873 905 1055 1054 1324 1345 1118 1058 1126 1259 1098 982 1103 960 918 1152 1300 1139 1165 1010 1230 948 556 358 245 235 230 188 138 303 596 855 903 876 839 941 1201 1140 666 440 685 892 1195 1245 1312 902 848 604 566 559 525 453 372 306 201 277 463 335
1223 1286 1002 844 957 609 1045 1327 1124 1311 1383 1443 1379 1052 1249 1315 1217 860 728 570 663 869 1221 1283 1352 1312 1361 886 939 1377 1173 1355 1400 1131 1133 1246 1182 1332 1257 844 970 992 1192 1522 1303 1190 1162 1142 1054 982 465 384 311 258 237 307 121 310 474 789 841 752 398 540 1260 999 662 629 939 1268 1406 1212 1266 1242 884 429 638 553 454 438 384 231 182 564 566
1604 1042 868 661 516 830 1144 1321 1367 1316 1431 1189 1479 1522 1358 979 825 782 699 720 699 942 1402 1434 1444 1357 1261 1260 1150 1344 1300 1588 1537 1279 1435 1360 1302 1374 1539 1400 1303 1421 1400 1320 1340 1420 1263 1139 1315 1223 893 609 394 300 225 172 147 154 357 364 486 614 816 791 566 1243 680 458 918 1011 1069 1190 1151 1046 1091 809 495 610 498 384 412 297 186 272 806
1511 1360 1286 773 714 957 1077 1447 1667 1600 1842 1514 1692 1360 1109 677 535 901 1015 1055 1378 1578 1519 1350 1243 1136 996 1013 1226 1252 1523 1652 1468 1389 1448 1402 1416 1394 1460 1384 1353 1402 1232 1243 1487 1498 1419 1398 1264 1352 1341 1078 529 238 348 236 215 99 412 268 551 569 525 705 480 894 985 476 528 676 920 1113 1103 1079 1269 1082 771 405 339 315 290 316 263 183 700
1278 1162 898 734 945 1331 1380 1170 1554 1324 1274 1315 1352 1568 1514 732 916 993 1321 1454 1678 1773 1423 1067 900 922 1198 1231 1345 1387 1445 1468 1242 1131 1172 1332 1257 1113 1108 1492 1554 1447 1370 1222 1229 1461 1564 1439 1566 1269 1001 920 766 482 532 552 273 450 255 236 45 288 578 349 607 912 836 761 482 509 701 700 943 907 1014 917 1018 815 404 374 270 299 257 223 197
1157 1198 938 835 629 885 1621 1601 1249 1334 1004 1030 1022 1092 1418 1538 1283 1288 1512 1725 1685 1534 1353 1220 1302 1482 1468 1524 1591 1492 1234 1277 1408 1251 722 653 733 922 1003 1354 1468 1504 1352 1348 1317 1274 1386 1451 1343 1196 1292 1139 1264 848 455 547 486 227 757 98 373 404 480 589 386 742 955 1157 1556 1240 396 495 607 637 824 1168 1444 1043 842 681 542 461 346 269 202
1257 1117 1034 950 857 1032 1438 1486 1294 1171 1245 944 1096 1133 1213 1204 1431 1841 2032 1941 1462 1474 1340 1749 1577 1603 1448 1507 1490 1587 1381 1381 1150 1329 642 789 832 994 1265 1562 1482 1428 1254 1231 1537 1232 1255 1515 1322 1205 1320 1050 1148 840 439 408 647 305 516 513 449 445 788 513 844 596 790 775 1024 1287 1512 532 534 551 628 798 1289 1159 1057 981 864 631 516 361 314
1170 1109 1225 1147 964 1123 1474 1280 1495 1560 1633 1516 1431 1625 1759 1468 1400 1566 1442 1272 1491 870 1300 1887 1776 2035 1691 1564 1559 1535 1313 1220 1088 1160 1270 794 760 1171 1208 902 1327 1178 1326 1210 1265 1247 1328 1298 1064 958 1083 1132 791 665 569 384 329 251 342 424 1077 1247 509 567 809 885 1171 909 1003 878 1038 868 829 725 789 623 658 1112 1158 1301 1422 1117 870 761 548
1058 931 1178 1371 1497 1562 1593 1216 1356 1670 1711 1460 1243 1324 1434 1154 1229 1090 838 1087 1313 1323 1272 1868 1768 1565 1737 1380 1705 1582 1368 1202 1197 1045 1109 940 817 834 857 1030 1219 1124 1204 1247 1303 1097 1152 1085 859 820 900 846 956 1022 750 303 476 474 419 516 1110 1344 1252 784 751 1339 1487 985 1070 1257 1228 995 857 810 841 1679 1049 834 1219 1472 1239 1352 1279 976 864
905 1055 1400 1297 1465 1673 1488 1447 1275 1331 1473 1484 1180 1246 1206 964 820 903 894 762 814 1005 1406 1445 1375 1368 1369 1333 1591 1727 1528 1231 1186 1135 942 845 840 735 932 1029 1209 1210 1243 1344 1148 1158 1147 1157 1182 1031 986 908 856 674 612 757 891 579 588 812 965 1229 1246 1198 900 1370 1420 1099 1118 822 722 776 1016 1045 1288 1036 752 1354 968 1061 1414 1335 1276 1034 1101
1144 1266 1434 1624 1515 1476 1371 1321 1468 1426 1318 1225 1224 1178 1096 790 528 660 666 678 638 734 1183 1097 1068 1226 1265 1464 1341 1509 1436 1170 1221 1132 825 590 690 831 1017 958 865 1078 1303 987 937 1094 880 787 951 1107 831 744 799 844 648 450 425 533 431 812 818 872 1170 1497 1403 1254 1314 832 808 911 959 1309 1223 1011 1019 1244 1180 1161 1025 807 796 863 1070 950 1203
1608 1548 1569 1660 1513 1315 1235 1362 1513 1251 1054 1040 1070 1022 892 826 685 714 779 869 803 617 818 818 1042 1054 1073 1121 1231 1528 1258 1499 1208 1407 1174 1067 874 841 905 912 1112 935 764 727 571 673 765 866 988 1031 1101 953 842 512 586 400 489 301 562 440 612 755 1097 1216 1358 1126 1204 1146 821 705 672 873 1070 1187 781 927 960 1008 876 886 1132 882 933 995 1259
1588 1524 1624 1708 1576 1251 1250 1354 1247 1113 1002 1098 1127 1153 945 914 989 872 975 1028 528 767 993 814 971 1071 1107 958 1098 1135 1217 1377 1405 1486 1476 1138 1057 990 1115 902 1127 1171 1078 1070 924 719 662 1064 1399 1081 1103 955 840 676 816 708 454 380 628 594 653 935 913 1161 1301 981 908 1018 1059 1132 942 884 951 1027 808 669 851 995 771 933 1079 865 1088 1092 998
1612 1586 1778 1743 1533 1436 1373 1341 1318 1270 1244 1304 1148 1425 1390 1162 1271 1030 903 721 612 873 1016 829 774 986 1066 1211 1505 1095 1288 1495 1579 1363 1216 894 1068 999 927 769 918 1155 930 878 991 936 994 1171 1190 1143 1212 1277 1259 1126 1099 855 514 397 577 483 361 608 990 1123 718 627 848 761 691 897 946 944 963 794 810 845 1134 856 634 810 853 1131 972 1013 1081
1709 1868 1658 1418 1200 1516 1508 1479 1530 1404 1573 1610 1480 1872 2077 1997 1828 1190 765 479 494 574 253 251 489 632 1323 1302 1308 1420 1257 1114 1351 1562 1075 1399 1218 1202 826 804 887 1178 935 875 1080 1212 1223 1206 1261 1262 1342 1216 1110 682 668 1040 523 670 798 570 540 458 790 1078 1032 759 617 363 766 826 751 804 908 1123 779 666 733 803 729 993 1206 1044 1087 1002 764
1797 1561 1511 1598 1100 1199 1648 1687 1665 1547 1508 1583 1654 1645 1981 1357 1290 1801 1212 1207 746 786 711 722 658 693 881 1152 1266 1246 1106 929 1018 866 1229 1337 993 1242 1169 1179 938 1150 1434 1249 1179 1059 944 1168 1197 1293 1142 930 818 870 995 910 577 437 541 511 547 738 535 418 1031 676 777 463 768 848 636 700 900 701 1374 1228 1142 566 632 860 1181 931 908 820 734
1554 1429 1200 1160 1220 1403 1736 1735 1530 1464 1549 1383 1260 1364 1266 1143 971 651 571 579 830 697 551 383 571 623 799 942 1055 1116 747 367 461 692 969 1311 950 909 1261 912 1314 1471 1355 1400 1280 1135 1174 1239 1304 1315 935 929 626 458 441 770 861 1159 699 347 409 458 586 624 662 641 1014 762 830 528 356 628 849 787 1007 858 440 535 322 594 562 359 524 432 327
1290 1112 1011 898 1134 1459 1751 1610 1508 1477 1362 1162 1095 1010 784 549 707 948 950 938 943 998 870 383 123 443 518 835 792 853 473 943 763 634 651 567 966 1374 1440 1262 1123 1481 1355 1502 1368 1105 1113 1148 1120 1115 966 977 677 421 506 796 994 1189 1188 1695 1372 591 647 551 596 319 902 1125 284 630 358 483 350 326 231 300 355 190 116 138 132 237 170 1 0
912 599 713 882 1228 1358 1411 1521 1427 1301 1070 983 987 950 662 620 949 1085 1187 1362 1341 1369 641 762 728 48 505 1171 853 798 539 819 790 861 872 820 924 807 684 1106 1066 1060 1180 1336 1291 1330 1079 1109 1368 920 1038 975 754 634 593 595 794 1239 1241 1261 1040 796 612 458 540 238 94 193 362 0 0 2 78 92 0 0 0 0 7 1 24 33 37 12 0
726 850 1033 1168 1270 1160 1132 1040 1118 1032 725 770 694 599 593 541 620 1472 1459 1468 1653 1091 1120 754 503 515 522 520 905 956 666 368 863 631 827 636 794 887 709 680 815 624 610 823 1354 1425 1350 917 1332 1241 1061 881 926 689 254 666 690 1108 1167 1184 1179 833 813 972 534 727 54 16 1 0 0 0 2 1 0 0 1 6 6 0 0 0 0 0 0
850 778 962 1231 1203 1022 853 891 972 754 570 674 869 788 478 402 284 352 1224 1039 934 1100 513 189 387 460 372 464 866 624 824 920 315 220 430 402 577 584 761 696 592 734 402 540 887 911 1064 1283 1151 1457 1875 1570 1172 545 635 872 650 884 705 771 821 883 940 985 1054 1004 653 0 0 1 4 4 2 1 0 0 0 0 0 0 0 0 0 0 0
871 806 1012 1132 1083 768 781 947 832 625 780 885 945 666 261 378 382 152 889 902 1062 653 336 522 446 484 749 818 576 620 349 343 890 659 702 331 586 724 570 516 663 271 412 664 911 1504 1422 1318 1496 1512 1565 1367 1602 794 869 622 632 837 585 748 616 554 543 582 783 698 267 494 25 0 4 6 1 0 0 0 0 0 0 0 0 0 0 0 0
874 890 922 945 935 745 708 594 588 595 739 686 580 280 204 423 389 109 883 944 1117 927 565 423 464 548 459 406 794 689 668 579 447 771 290 121 535 637 602 402 454 662 442 362 516 514 929 1273 1464 1479 1212 1296 1134 968 907 756 481 559 697 578 348 396 283 405 531 578 605 431 0 1 0 0 0 0 0 0 0 0 0 0 0 0 0 0 0
Wind_Speed
36 38 37 39 40 39 39 40 39 40 41 41 42 43 43 43 43 43 42 42 41 41 39 38 36 34 32 31 31 31 32 32 32 31 30 29 30 31 30 30 30 29 28 27 25 24 23 22 22 21 21 21 20 19 19 19 19 19 18 17 17 16 15 14 13 15 16 nan 16 17 17 15 17 19 20 21 nan nan nan nan nan nan nan 12 15
38 36 36 37 41 40 41 41 41 41 41 43 43 43 43 43 43 43 42 42 41 41 39 38 36 34 33 31 31 31 32 32 32 31 30 29 29 30 30 30 29 28 27 26 24 25 23 22 23 22 22 21 21 23 22 22 20 20 19 16 14 13 12 12 13 12 13 15 16 nan 17 17 18 18 20 nan nan nan nan nan nan nan nan 15 16
37 35 35 38 41 41 41 41 42 42 43 44 44 43 43 43 43 43 43 42 41 39 39 38 37 35 33 32 31 31 31 32 32 30 28 28 28 29 29 28 28 28 26 26 25 25 23 22 23 23 22 22 21 22 22 22 21 20 17 14 11 10 9 9 11 12 10 12 15 17 18 18 17 18 20 nan nan nan nan nan nan nan nan 17 15
36 33 35 38 42 41 42 42 42 43 43 43 43 42 42 42 42 42 42 41 39 39 39 39 38 36 34 32 32 31 31 31 31 29 27 27 27 27 26 26 27 27 27 25 24 23 22 21 21 22 21 22 21 21 22 22 21 18 14 12 10 9 9 9 9 9 7 10 14 11 9 nan 13 18 19 18 nan nan nan nan nan nan nan 18 18
36 36 35 37 40 41 42 42 42 44 44 43 42 42 42 42 42 41 40 40 39 39 39 39 38 36 34 33 32 31 31 31 30 27 26 26 26 26 25 25 26 26 24 22 21 20 20 20 21 21 21 21 22 20 20 20 20 16 12 10 8 6 7 9 6 6 7 6 8 9 8 nan 10 17 17 19 19 nan nan nan nan nan nan 18 17
39 38 37 38 39 41 41 41 43 44 43 43 42 42 42 43 42 41 40 40 41 41 40 39 38 35 34 33 32 32 32 31 29 26 24 25 24 24 24 24 24 25 23 21 19 20 19 18 20 21 22 22 21 21 21 20 18 14 10 8 6 4 5 6 7 7 5 6 7 7 8 nan nan 12 18 18 19 nan nan nan nan nan nan nan nan
39 37 37 38 37 39 40 41 45 43 42 42 42 42 42 42 41 40 40 41 41 42 40 38 37 35 33 32 32 32 32 30 28 26 25 26 25 22 23 23 22 22 21 20 18 18 18 17 18 19 20 21 21 21 20 20 17 12 8 6 4 4 4 4 3 2 3 3 3 5 8 11 10 nan 17 16 18 nan nan nan nan nan nan nan 17
38 35 36 36 35 39 39 42 44 43 42 41 40 41 42 40 39 40 41 41 41 41 39 37 35 33 32 31 32 31 31 29 27 26 24 25 24 22 22 22 22 20 20 19 18 17 17 16 18 19 20 21 21 21 21 20 15 10 7 7 6 7 5 5 4 5 9 4 7 2 11 12 11 nan 16 16 16 19 nan nan nan nan nan nan nan
37 37 36 35 37 40 39 40 42 43 42 42 42 42 40 39 40 40 40 40 39 38 37 35 33 32 31 31 31 32 31 28 27 27 27 26 26 27 23 21 20 19 18 15 16 15 14 16 17 19 20 21 22 22 21 19 13 10 9 9 9 7 5 6 7 9 6 5 8 10 12 11 11 11 15 17 19 22 nan nan nan nan nan nan nan
37 36 35 35 37 39 39 39 40 42 42 42 41 40 40 40 40 40 40 39 37 35 34 33 32 32 31 31 31 33 31 28 27 27 28 28 28 28 26 23 22 21 20 18 18 16 16 15 17 20 20 20 22 22 20 18 12 10 9 9 9 7 7 7 9 8 6 6 12 15 13 16 13 12 14 17 19 20 nan nan nan nan nan nan nan
38 35 35 36 39 38 39 39 40 42 42 41 41 40 40 41 41 40 39 37 36 34 33 32 32 32 32 32 34 33 32 29 28 28 28 29 28 26 25 25 23 21 20 19 16 16 16 19 20 19 20 20 21 20 19 16 13 10 10 8 8 7 5 6 8 4 4 9 12 10 14 18 11 9 15 17 18 19 19 nan nan nan nan nan nan
35 35 35 35 39 38 38 39 40 40 42 41 41 42 41 41 40 39 38 37 37 35 33 33 32 32 34 35 36 34 32 30 29 28 28 28 28 26 24 24 24 23 21 19 17 16 19 21 21 20 20 20 19 19 17 15 12 10 9 8 6 7 7 8 5 3 6 15 15 12 11 12 11 14 18 19 18 17 17 17 nan nan nan nan nan
33 35 35 35 36 36 38 38 39 40 41 41 41 41 40 39 37 37 36 35 35 35 34 33 34 34 35 37 35 36 33 31 30 29 28 27 26 24 22 23 24 24 22 21 19 20 20 20 21 20 19 19 18 17 16 15 13 11 10 8 8 8 9 10 4 4 8 14 14 14 12 9 9 15 17 19 18 18 16 nan nan nan nan nan nan
34 34 33 34 33 37 37 37 38 38 39 40 40 39 38 37 36 35 34 33 33 33 33 34 35 36 39 37 35 37 34 32 32 32 27 27 26 22 23 23 24 23 23 22 20 21 22 21 19 19 18 18 17 15 15 15 15 12 11 10 10 10 10 7 6 5 12 15 15 16 10 8 8 14 16 19 18 18 17 nan nan nan nan nan nan
34 33 33 33 33 33 38 36 37 38 39 39 39 38 37 35 33 33 32 32 33 33 33 35 36 37 39 39 38 37 35 32 34 34 27 27 25 22 22 23 23 22 23 24 22 21 21 20 20 19 18 18 17 15 15 17 16 13 11 12 12 12 12 10 10 10 12 18 15 16 11 8 11 13 15 17 18 18 17 nan nan nan nan nan nan
33 34 34 33 33 33 32 36 37 37 38 38 38 37 36 34 33 31 31 31 32 32 32 34 35 37 40 40 39 38 36 35 37 34 30 28 24 24 24 24 23 22 23 23 22 22 20 20 19 18 18 18 17 15 15 16 17 14 12 13 13 12 13 12 10 9 17 17 17 15 12 9 12 13 13 14 16 16 17 18 nan nan nan nan nan
30 32 33 33 33 32 32 32 33 37 36 36 34 34 35 34 32 30 30 31 31 31 32 32 35 38 39 40 41 39 38 39 39 35 31 28 24 24 23 24 24 23 23 23 23 22 21 19 19 17 17 17 17 15 15 16 16 15 11 12 12 11 12 12 9 10 17 19 18 15 11 11 13 13 13 13 14 15 16 18 17 17 nan nan nan
29 30 32 33 32 32 32 31 31 32 32 31 31 33 34 33 31 29 28 28 28 30 31 33 34 36 38 40 41 42 43 43 40 35 31 27 22 22 23 23 23 23 23 23 23 23 22 20 18 17 16 16 15 14 15 17 16 14 12 11 11 13 13 13 13 13 20 21 20 16 13 15 16 14 14 13 13 15 15 16 17 17 nan nan nan
27 31 33 34 33 32 30 30 29 28 28 25 27 31 32 30 27 25 25 26 26 29 31 32 34 36 39 41 44 45 46 44 39 34 29 24 22 22 22 23 23 23 23 23 23 22 20 18 18 16 15 15 13 13 14 16 16 15 12 12 14 13 13 13 10 19 21 20 19 16 15 19 18 16 14 14 13 14 14 14 15 nan nan nan nan
26 29 33 31 30 29 27 29 26 23 22 25 29 27 25 25 24 23 24 25 26 27 27 29 32 36 40 43 46 45 44 41 39 33 25 21 20 21 23 23 24 24 23 22 22 21 19 17 16 16 14 14 13 12 13 15 16 14 13 14 15 15 15 13 17 25 18 21 22 17 19 22 21 19 16 16 14 13 13 13 14 16 nan nan nan
26 30 30 29 29 28 31 28 23 24 24 29 31 25 19 22 24 27 25 23 23 25 27 29 30 33 35 38 43 38 34 35 32 25 19 16 19 22 23 24 24 23 22 21 21 20 18 16 14 13 13 11 12 12 12 13 14 15 14 15 17 18 16 18 21 21 18 21 22 19 22 25 22 20 19 17 16 15 14 14 14 16 17 17 17
25 28 30 28 28 28 32 30 26 28 28 29 27 21 18 21 22 22 20 19 22 24 23 25 29 30 33 34 38 34 26 26 23 18 14 18 18 20 21 22 22 22 22 21 20 19 17 15 13 12 11 11 10 13 13 12 12 15 14 17 20 18 17 20 21 20 20 22 22 20 23 26 24 22 22 20 18 17 15 15 15 16 16 17 17
23 26 27 27 26 30 32 30 27 26 29 29 24 21 22 19 22 20 19 20 20 20 21 26 27 29 28 31 34 29 23 18 15 14 15 17 16 17 20 20 21 22 23 22 20 18 16 13 11 10 11 12 13 12 13 15 14 13 16 20 19 19 18 24 22 19 21 23 22 24 24 25 24 23 22 21 21 20 18 17 16 16 15 17 nan
23 24 28 26 29 31 32 28 24 25 29 29 24 22 22 20 21 19 19 17 16 19 23 25 24 27 27 28 27 23 23 16 15 16 17 16 14 17 19 20 23 23 24 21 18 16 13 11 9 9 12 13 13 11 10 15 16 17 18 18 19 18 22 21 20 20 22 25 23 26 26 23 25 24 23 22 22 22 21 19 18 17 16 16 nan
22 28 29 29 31 27 29 28 26 29 30 29 26 24 24 21 20 19 18 15 17 22 23 21 21 22 21 21 21 21 19 15 17 14 13 12 13 14 16 16 19 20 22 20 17 14 14 12 12 12 13 13 12 11 8 14 17 17 17 18 18 21 21 23 23 21 23 25 25 27 26 24 26 26 25 23 25 23 23 22 21 19 17 16 17
22 25 28 31 32 28 28 26 30 29 27 25 26 24 24 20 19 17 17 17 22 23 20 17 16 15 14 14 19 18 16 14 15 15 13 12 14 15 15 16 18 19 18 19 17 16 14 11 10 11 12 11 9 10 11 16 16 16 18 18 21 22 21 25 24 23 26 26 25 28 26 24 25 27 27 24 24 24 24 24 23 21 19 18 17
22 27 29 29 31 29 27 26 26 26 25 22 23 23 22 20 18 17 17 21 19 14 16 15 11 10 11 12 17 15 13 13 15 15 15 15 15 15 17 15 15 16 13 15 14 14 12 9 9 10 11 8 10 13 13 13 13 15 17 20 19 21 22 27 25 25 26 25 25 29 26 25 23 26 27 27 25 25 25 25 25 23 22 21 19
25 28 32 32 30 28 27 27 25 26 23 23 24 22 19 19 17 16 21 21 14 11 12 14 13 12 13 15 15 13 12 15 20 19 17 16 15 16 17 16 13 13 14 13 13 13 10 9 10 8 9 9 nan 11 11 12 14 12 15 17 18 19 23 26 24 26 26 25 24 25 27 25 23 25 27 26 26 26 26 25 25 24 23 24 22
26 27 31 32 28 24 28 26 26 26 22 23 22 20 18 17 18 19 22 15 9 12 10 12 14 16 17 17 16 14 14 17 22 21 20 17 16 14 15 15 15 14 15 14 14 15 13 13 11 8 7 8 7 9 12 12 13 13 13 18 14 18 28 25 24 27 26 23 22 23 26 26 23 24 25 26 26 26 26 25 24 23 24 24 24
25 27 31 29 26 23 24 23 23 23 20 20 19 20 19 18 19 22 18 10 10 8 9 13 15 17 19 18 14 14 13 15 18 17 18 17 15 14 14 14 14 15 13 13 15 15 14 14 11 6 5 6 12 11 12 11 14 10 10 15 13 19 26 20 21 27 25 22 22 22 26 26 25 24 23 24 28 25 26 26 24 23 24 23 24
25 28 30 29 25 20 18 18 22 21 19 19 17 17 19 19 20 17 11 10 10 10 11 15 16 15 15 14 13 12 11 13 13 15 15 15 14 13 12 14 14 13 11 11 12 14 13 12 10 6 6 8 10 11 12 9 12 12 8 10 12 16 21 22 19 26 24 22 20 20 23 26 25 25 27 25 25 27 25 25 24 23 22 23 23
27 28 29 30 24 19 19 17 20 18 18 21 17 17 17 19 19 12 9 9 12 12 13 14 14 12 12 11 10 10 10 11 12 12 14 13 12 9 11 12 12 10 11 10 10 11 11 10 9 7 9 9 9 11 11 10 13 nan 9 9 13 14 19 24 24 23 12 17 18 20 21 21 24 26 27 27 25 22 25 25 23 23 22 22 23
23 25 29 27 20 15 17 21 19 19 19 20 18 17 16 18 20 14 10 13 11 11 12 13 11 11 10 11 11 12 11 12 12 12 15 13 8 5 6 9 10 8 10 10 8 8 8 8 7 8 9 9 10 9 13 14 13 13 9 10 nan 11 21 24 21 13 14 19 20 19 17 18 20 23 24 24 24 22 22 24 24 23 22 21 23
24 26 29 22 14 13 13 18 21 20 20 19 18 18 16 15 16 16 14 12 10 10 12 12 11 12 12 12 12 11 10 12 12 11 16 12 7 7 8 9 8 9 10 8 7 7 6 6 5 7 8 9 9 11 15 15 12 14 15 nan 15 11 18 22 17 15 16 17 18 17 17 17 17 17 19 21 22 22 23 24 25 23 22 21 22
27 26 26 20 14 14 15 18 21 20 21 19 16 16 14 16 16 16 13 10 10 12 11 12 12 11 9 9 9 9 9 9 10 9 14 15 13 11 12 10 9 10 10 10 8 8 6 6 4 4 5 8 8 12 14 13 16 18 17 14 12 12 18 19 15 14 15 15 15 16 17 17 17 18 19 19 20 21 21 21 23 22 21 22 21
28 22 22 20 18 18 18 21 23 24 21 20 18 17 19 18 17 15 14 13 12 12 11 10 10 9 8 8 8 8 7 9 8 8 10 12 12 12 10 10 9 10 10 11 9 10 9 7 4 3 3 8 9 9 13 12 14 17 16 14 6 11 16 18 17 17 16 17 17 16 15 18 20 19 20 20 18 19 20 20 21 20 21 21 21
26 24 20 21 19 23 22 23 22 24 23 21 21 19 19 18 15 13 12 11 12 11 11 9 9 7 5 7 8 9 7 8 8 8 10 7 12 14 12 11 11 12 11 11 9 9 10 8 5 4 4 6 6 8 13 14 14 15 11 7 9 9 14 17 16 16 17 17 16 16 17 20 20 19 15 17 17 17 18 20 20 20 19 19 20
25 23 21 23 22 25 26 23 19 20 20 18 18 18 18 17 14 10 9 11 12 11 11 8 9 7 7 8 9 10 10 11 11 11 14 9 11 15 14 14 13 13 12 11 10 8 9 8 8 8 7 5 7 11 14 12 11 14 7 4 4 10 13 14 15 15 16 18 18 16 15 16 17 17 16 15 14 13 16 18 20 19 18 18 17
23 22 22 25 26 26 27 25 19 19 20 19 18 19 18 17 14 12 12 13 13 11 10 9 10 10 10 12 12 14 14 12 12 14 16 12 12 15 13 14 12 12 13 13 11 9 10 9 8 9 8 9 10 11 13 13 12 13 7 3 2 9 9 10 15 16 16 18 17 16 13 11 13 16 16 16 13 13 15 15 14 14 15 15 14
22 22 25 27 29 29 27 24 22 22 23 21 20 19 17 15 17 17 16 14 13 13 13 12 12 10 10 12 13 12 14 14 13 15 16 13 14 15 13 13 12 12 14 14 14 12 10 11 10 9 10 11 12 9 12 13 13 14 3 3 5 7 8 10 11 15 15 16 15 14 13 11 14 13 14 13 12 12 13 12 11 14 12 15 14
21 24 26 27 30 29 29 27 24 24 24 21 21 20 19 18 19 17 16 16 18 16 14 13 11 12 11 13 13 13 12 15 14 16 14 14 14 15 13 11 10 12 12 12 13 13 10 9 10 11 11 11 10 10 10 12 15 11 6 1 6 9 9 9 11 13 15 14 15 15 12 13 13 12 13 12 10 11 12 12 11 12 13 13 14
23 26 26 27 30 31 30 28 25 25 24 22 22 21 19 21 20 18 19 21 20 16 15 16 15 12 10 10 11 13 14 14 16 16 14 13 13 14 12 9 9 10 11 11 11 11 11 11 11 12 11 11 11 11 11 11 13 10 10 6 6 9 9 9 9 10 13 14 15 14 10 12 12 14 12 10 9 12 12 11 11 11 11 10 11
27 27 29 30 31 31 31 28 26 26 25 24 25 24 22 23 23 21 22 22 17 16 16 16 13 12 10 11 11 13 13 15 14 18 16 15 15 13 11 10 8 9 10 11 11 11 10 10 12 12 14 12 12 12 10 7 12 14 13 11 7 9 10 9 9 13 15 13 13 16 14 11 11 11 9 10 12 11 10 9 9 11 10 10 10
28 29 31 32 32 29 31 29 28 28 27 26 29 29 26 25 24 20 23 21 20 19 18 16 15 13 11 11 11 10 11 14 16 18 17 16 14 12 11 10 8 7 9 10 11 12 12 11 12 13 15 13 11 13 11 8 11 16 13 11 9 8 11 10 10 11 11 14 13 15 15 13 11 7 8 10 10 11 9 9 10 11 11 11 12
32 34 28 30 31 30 31 31 28 28 27 30 31 28 28 29 17 24 26 23 18 17 16 16 15 12 12 11 11 11 12 12 9 12 16 16 18 15 13 12 7 7 6 8 9 11 12 12 13 15 15 14 12 13 13 11 10 10 14 13 12 10 10 12 11 10 9 12 11 18 13 13 14 12 13 11 8 9 11 12 13 15 17 17 17
39 40 32 36 34 30 32 30 27 28 29 31 31 28 27 30 19 26 22 18 16 13 15 16 14 12 13 12 12 12 11 9 10 11 11 11 12 16 15 16 13 9 8 8 9 10 11 13 13 15 16 14 16 12 13 12 10 10 11 11 11 11 13 12 12 12 10 11 13 12 12 15 16 15 16 16 14 12 14 18 19 18 19 nan nan
41 37 32 30 28 23 24 26 26 27 28 30 30 25 27 29 17 18 15 14 13 13 15 13 14 nan 14 13 13 12 13 11 11 12 11 9 9 10 10 15 18 15 13 12 12 11 14 16 16 15 16 18 18 15 12 11 12 9 11 11 12 12 15 15 13 15 nan 12 14 nan nan nan nan nan nan nan nan nan nan nan nan nan nan nan nan
36 33 30 27 30 22 23 25 24 26 27 28 27 25 27 29 22 14 11 11 13 16 15 15 14 14 14 13 12 10 13 14 12 13 14 13 11 12 11 11 12 17 18 19 19 16 16 18 20 17 16 19 18 20 16 13 12 12 13 12 12 14 14 14 14 13 nan nan nan nan nan nan nan nan nan nan nan nan nan nan nan nan nan nan nan
30 30 25 25 25 25 25 25 25 26 26 26 25 26 32 33 24 14 8 15 14 14 15 14 13 13 12 9 10 11 12 11 14 13 14 15 16 15 13 14 12 14 20 19 18 18 18 20 20 19 16 19 21 19 20 17 16 15 16 12 11 14 14 14 13 14 15 nan nan nan nan nan nan nan nan nan nan nan nan nan nan nan nan nan nan
26 25 23 21 22 22 23 24 25 24 22 23 24 26 33 29 17 4 5 13 12 12 14 14 14 10 10 9 10 12 14 12 11 13 15 16 15 18 19 16 17 19 20 20 20 21 19 20 20 20 18 18 20 21 22 21 18 18 17 15 13 12 15 12 12 13 15 15 nan nan nan nan nan nan nan nan nan nan nan nan nan nan nan nan nan
23 21 20 17 19 21 22 22 23 21 20 21 23 24 24 21 16 12 7 12 11 14 16 14 12 11 11 10 11 13 14 16 14 13 16 18 19 18 20 20 19 17 18 19 19 20 22 22 19 19 19 20 20 21 23 23 20 17 17 16 13 11 13 11 11 12 13 14 nan nan nan nan nan nan nan nan nan nan nan nan nan nan nan nan nan
Wind_Direction
285 289 287 291 292 293 295 295 296 297 299 299 300 301 303 305 307 308 308 306 305 304 304 304 304 301 296 291 288 289 291 295 299 301 298 295 296 295 297 299 300 300 301 301 299 297 290 288 284 276 272 267 264 261 259 263 265 266 265 262 261 269 275 273 271 269 269 nan 255 244 240 239 233 228 225 217 nan nan nan nan nan nan nan 229 237
287 286 285 287 290 293 296 296 298 300 300 301 301 302 304 306 308 308 307 306 305 304 304 304 302 301 297 292 289 289 290 294 297 300 299 297 297 298 299 301 301 301 302 302 300 296 294 289 285 279 273 271 270 263 258 259 259 263 265 266 271 282 282 277 274 279 278 272 263 nan 246 233 235 234 230 nan nan nan nan nan nan nan nan 242 240
283 283 284 288 290 294 297 297 299 300 301 301 301 303 306 308 308 307 307 305 304 304 304 304 302 300 298 295 291 290 291 293 296 299 299 299 298 300 302 304 304 304 302 303 300 295 291 289 286 280 276 273 273 265 260 259 258 259 265 275 285 284 279 277 272 279 284 282 276 263 255 241 233 236 238 nan nan nan nan nan nan nan nan 238 240
284 283 284 288 291 294 296 298 300 300 301 301 302 304 306 307 307 306 305 304 302 304 304 303 302 301 299 297 294 291 291 293 297 299 301 300 302 303 304 304 305 304 305 305 300 297 294 290 286 283 280 278 275 268 263 260 259 258 265 269 273 278 282 284 287 279 281 298 298 266 233 nan 226 237 241 234 nan nan nan nan nan nan nan 233 230
284 284 287 290 294 295 298 299 300 302 300 300 304 306 306 305 304 303 301 301 301 302 302 302 301 300 300 299 296 293 292 293 297 300 301 302 302 305 306 304 303 302 302 301 298 296 292 290 285 281 281 280 275 271 263 263 261 257 258 268 268 276 282 287 295 316 317 333 1 229 250 nan 227 234 234 233 225 nan nan nan nan nan nan 232 231
284 286 289 291 296 299 299 300 299 299 300 303 305 306 305 304 303 300 300 300 301 301 300 300 298 299 298 299 296 293 291 292 296 299 300 300 301 304 304 304 301 300 300 302 301 296 296 290 284 280 279 278 277 271 265 261 262 261 259 264 285 292 305 310 312 326 345 19 83 140 220 nan nan 216 230 230 228 nan nan nan nan nan nan nan nan
285 287 291 293 297 300 299 299 301 299 301 305 305 304 304 303 301 300 300 300 300 300 299 299 297 297 297 296 293 291 290 290 292 293 295 300 301 301 302 301 300 297 299 302 302 297 293 293 286 279 276 276 276 272 266 264 262 263 266 268 246 244 220 233 173 96 57 49 115 112 229 231 221 nan 224 231 231 nan nan nan nan nan nan nan 237
287 290 294 295 298 299 299 300 301 301 304 303 301 302 302 300 300 300 300 299 299 298 299 297 295 295 293 292 291 291 289 287 286 283 280 283 287 294 299 300 297 294 298 301 301 299 298 295 287 280 276 278 276 271 269 265 265 264 252 240 227 206 205 178 173 124 119 98 91 226 237 233 222 nan 224 228 234 232 nan nan nan nan nan nan nan
292 294 293 295 297 298 298 299 302 303 303 302 302 302 299 299 299 299 299 298 299 299 296 295 293 291 289 289 289 289 285 282 280 276 276 280 280 278 279 282 288 290 292 296 292 292 295 293 289 282 279 279 277 272 270 266 262 255 238 224 220 203 188 184 153 141 116 49 227 236 250 235 229 218 224 233 230 224 nan nan nan nan nan nan nan
293 294 293 293 298 297 298 300 302 302 301 300 301 299 299 299 298 297 297 298 298 297 296 294 291 287 286 289 288 285 283 279 277 274 277 277 278 284 285 286 284 282 281 288 294 293 295 293 286 282 281 281 277 272 267 267 260 248 241 226 215 199 189 170 161 135 107 238 253 246 237 240 222 218 230 229 231 231 nan nan nan nan nan nan nan
297 294 291 294 299 298 300 301 301 302 302 301 301 299 298 298 298 297 297 296 295 295 295 292 288 285 284 284 283 283 282 279 277 276 275 277 277 280 290 292 290 287 287 288 292 295 292 282 281 284 280 276 275 270 266 264 256 242 235 229 204 208 178 160 157 161 76 270 261 257 250 247 224 217 239 236 235 235 235 nan nan nan nan nan nan
291 290 289 294 300 301 300 300 300 301 302 301 299 298 298 298 298 297 295 291 292 293 291 289 286 285 283 282 283 282 281 278 275 275 275 277 279 278 285 294 294 292 290 289 288 287 286 283 287 284 283 281 273 268 265 261 253 238 228 215 195 187 178 166 169 173 243 256 258 248 244 243 231 230 241 243 241 238 236 239 nan nan nan nan nan
294 291 292 297 303 299 299 299 299 299 299 298 298 298 299 298 296 294 291 288 289 291 289 288 285 281 278 277 281 279 278 277 277 277 275 275 274 277 284 292 292 292 292 291 284 280 286 288 290 288 285 279 273 267 263 258 243 231 213 204 193 187 184 178 186 134 268 269 264 259 254 243 231 243 246 248 245 242 236 nan nan nan nan nan nan
290 292 295 297 299 299 297 297 296 295 296 297 299 300 300 297 295 291 288 286 287 287 284 284 284 281 280 281 281 279 279 279 280 276 273 276 274 273 283 287 287 290 292 293 288 287 286 287 288 289 286 280 274 266 263 256 248 225 208 197 193 193 187 191 204 241 252 266 260 259 243 231 251 262 245 245 243 242 238 nan nan nan nan nan nan
292 293 294 293 297 297 295 294 293 295 297 300 300 300 298 294 290 287 285 284 283 281 281 282 281 283 283 283 282 281 280 279 280 281 283 277 273 275 281 283 283 285 286 285 292 291 290 292 289 287 284 277 271 265 260 257 252 234 212 199 197 193 193 214 209 255 261 259 268 266 260 249 245 245 249 247 245 242 241 nan nan nan nan nan nan
289 292 290 289 293 291 291 294 294 296 299 301 300 299 296 292 289 286 282 281 281 281 281 283 282 281 281 281 282 281 279 277 276 277 280 276 273 279 281 284 287 288 290 292 291 292 294 292 290 289 288 283 278 272 264 258 253 248 214 205 202 196 199 211 228 231 264 272 267 265 264 258 263 260 254 254 251 245 243 241 nan nan nan nan nan
289 291 289 290 290 290 289 291 295 299 299 300 299 297 293 290 290 287 284 285 285 284 283 279 280 277 278 281 282 281 277 275 273 272 270 266 268 277 283 286 291 293 292 293 293 293 293 292 290 288 287 285 281 278 268 260 256 248 235 218 208 202 207 212 227 241 253 270 274 272 273 271 277 266 263 257 251 245 241 241 241 239 nan nan nan
290 290 290 289 289 289 289 293 299 299 298 297 294 291 290 290 291 288 288 289 288 284 280 280 279 277 279 279 277 276 273 269 266 264 262 262 271 280 282 285 288 290 293 294 295 294 294 293 291 287 284 285 286 283 274 264 256 247 239 229 221 215 211 209 232 246 261 265 267 269 267 272 271 266 262 258 255 255 250 248 245 244 nan nan nan
290 294 293 292 292 291 295 301 297 294 298 294 294 291 290 292 290 291 292 292 286 281 279 278 279 279 277 275 272 269 268 265 260 259 260 268 277 278 279 282 286 288 290 292 294 295 293 293 288 286 285 283 285 280 277 267 259 245 235 233 228 222 210 232 244 261 259 261 264 268 269 278 277 275 272 269 263 257 251 248 245 nan nan nan nan
293 296 295 286 289 298 306 299 295 295 290 290 292 293 292 291 292 293 292 288 282 279 276 276 277 278 277 276 273 267 265 261 260 259 268 274 277 275 282 285 286 287 290 292 293 292 291 288 286 283 282 283 282 280 271 267 260 248 235 229 232 224 237 242 253 260 269 270 270 269 281 283 282 281 280 276 273 268 263 256 253 246 nan nan nan
294 296 291 297 301 302 303 295 296 297 291 293 295 282 282 296 296 297 294 285 278 278 275 274 276 276 274 268 255 247 249 251 251 259 274 271 272 283 287 288 287 287 288 288 286 284 281 278 273 275 274 275 273 270 266 261 258 250 238 231 231 237 241 250 256 263 267 268 270 271 283 283 284 286 283 281 277 274 270 263 256 251 244 243 248
302 305 298 297 303 297 294 295 299 302 296 293 289 284 294 294 294 297 290 282 279 276 274 274 274 268 263 263 263 255 244 234 247 268 259 268 279 289 289 288 287 286 283 279 276 273 270 268 261 258 260 257 260 255 255 256 253 251 242 238 240 243 241 250 253 265 268 265 269 274 281 285 287 286 286 284 282 278 274 268 260 252 249 248 249
309 306 297 302 297 295 301 301 303 304 300 291 293 299 303 295 297 297 293 288 278 274 270 271 263 266 266 267 262 252 252 250 254 257 259 271 280 289 287 286 283 281 278 273 271 271 269 265 261 253 247 243 249 250 257 260 253 257 250 244 244 244 246 250 253 262 268 269 270 277 278 284 288 288 289 287 287 285 278 272 267 259 256 257 nan
300 299 301 300 302 301 298 302 309 308 300 295 301 303 297 297 300 297 292 281 268 265 267 267 269 275 277 273 268 260 254 257 255 263 270 272 278 284 286 285 284 283 282 279 279 277 277 271 258 252 249 254 258 258 261 269 266 259 253 251 249 248 252 261 257 259 265 271 272 278 274 275 288 288 286 287 288 286 281 278 272 268 260 261 nan
292 295 299 302 291 283 296 309 315 306 301 299 305 304 298 301 301 297 293 278 265 263 264 271 272 275 280 277 276 271 268 259 249 258 271 280 280 281 280 285 284 282 293 279 276 277 277 266 266 263 260 262 268 267 265 272 272 269 266 258 256 253 256 253 255 258 259 262 267 273 272 276 286 286 285 285 288 286 285 283 280 274 268 262 264
294 295 298 297 294 304 302 306 307 300 298 304 304 302 301 300 298 297 288 276 271 268 269 271 272 274 277 276 278 280 285 277 274 277 276 270 280 284 289 285 287 291 290 283 287 277 262 249 251 261 271 269 273 280 262 267 266 269 270 263 256 254 252 254 254 254 255 259 263 268 271 269 280 285 285 283 284 285 285 285 282 280 277 270 266
290 284 290 292 293 295 303 299 298 299 302 304 298 302 305 302 303 301 286 266 258 271 274 271 265 283 289 279 275 290 302 295 291 291 285 283 283 273 267 271 283 284 285 286 280 275 282 279 263 247 247 243 248 251 251 249 256 259 256 257 256 256 255 255 256 255 255 257 259 267 265 267 275 282 283 283 283 283 282 284 283 283 280 275 269
282 286 287 291 292 299 295 292 289 290 297 300 302 306 301 300 292 289 270 260 271 284 274 265 266 272 277 271 276 295 279 277 287 290 293 292 284 279 277 277 288 306 299 292 292 291 288 282 268 262 246 237 nan 261 262 261 256 246 256 259 266 262 258 257 256 256 254 254 256 261 262 262 265 280 283 284 284 284 283 283 282 277 278 275 273
284 285 285 282 281 282 277 281 286 293 297 301 304 296 298 295 288 280 275 280 278 263 263 272 281 284 285 281 291 301 296 287 293 297 296 297 293 295 295 297 303 301 299 291 285 280 276 269 271 263 256 233 245 254 260 260 257 249 255 256 249 257 251 246 253 256 252 253 256 260 262 261 261 274 282 283 283 283 282 280 277 277 276 278 278
290 286 279 268 269 269 274 280 284 291 298 301 297 300 298 285 268 266 281 280 260 265 278 289 289 291 291 291 304 306 300 297 297 301 304 306 309 310 309 310 300 296 301 292 288 289 281 277 282 287 274 255 238 236 255 261 277 259 245 263 250 257 268 254 244 253 258 257 259 261 263 260 259 259 267 281 284 282 279 279 278 276 279 284 284
287 281 275 280 273 266 274 283 287 302 304 298 294 291 287 280 276 276 273 267 294 302 303 299 296 295 291 297 309 310 305 302 309 312 309 310 312 310 313 312 303 300 305 296 299 302 301 293 295 298 284 263 248 235 224 251 271 276 267 261 267 266 276 272 248 239 251 261 264 264 265 265 264 263 259 255 273 283 279 278 279 278 276 282 285
276 268 269 274 276 281 296 298 300 304 293 290 287 291 291 285 275 271 269 290 305 303 291 285 287 298 303 295 292 307 324 316 322 321 309 305 296 306 314 311 308 317 309 304 315 313 317 309 306 308 282 271 262 233 218 218 248 nan 271 275 270 259 266 254 244 255 257 271 265 261 261 263 266 265 260 257 253 265 279 276 279 277 279 277 282
260 266 267 272 285 298 298 294 290 292 284 280 273 264 262 277 280 285 299 307 295 282 280 280 294 307 305 310 318 332 333 327 329 333 313 287 278 316 305 304 307 311 307 303 304 316 312 305 314 291 283 273 253 234 221 221 221 227 259 283 nan 278 261 266 279 293 272 259 268 272 273 272 266 265 265 264 260 256 265 275 272 274 274 276 277
276 268 273 288 301 287 290 287 288 288 288 277 270 264 259 264 276 284 289 283 274 284 289 287 298 310 320 328 327 331 340 334 335 332 304 302 327 328 322 320 316 312 301 294 307 307 300 303 318 303 283 270 263 239 228 227 208 215 212 nan 250 250 275 282 281 277 259 262 272 282 281 274 274 270 265 264 261 258 253 263 270 271 274 271 274
272 278 285 291 296 299 306 300 291 289 284 276 271 273 271 261 259 259 262 263 279 289 286 290 304 315 323 320 325 329 336 324 327 331 315 320 316 322 316 316 323 314 314 319 319 315 299 301 291 309 294 283 270 238 232 228 213 197 206 196 235 263 263 269 280 285 281 276 271 262 262 277 283 276 266 263 262 264 263 268 272 273 274 277 277
277 283 281 283 286 298 307 303 300 297 285 276 272 270 259 254 257 257 246 259 277 283 282 297 304 307 316 314 316 319 321 322 326 320 302 308 322 306 315 305 321 313 320 324 327 319 307 291 295 316 309 290 268 228 226 229 230 227 204 198 207 252 261 276 283 286 288 286 277 261 264 259 245 249 266 270 268 268 273 271 272 272 273 276 275
278 281 278 270 276 293 292 299 306 299 292 280 277 281 276 269 274 268 261 263 267 267 294 304 306 306 300 294 304 301 309 304 308 304 291 289 295 295 306 317 325 325 320 324 324 313 316 308 288 293 292 280 255 231 235 214 225 244 205 179 207 248 260 267 273 276 280 281 284 284 266 266 275 277 261 259 259 269 269 271 273 270 270 274 274
281 283 279 273 280 291 293 298 303 298 288 273 276 284 278 277 286 293 272 272 279 285 293 301 289 287 298 295 305 305 307 311 311 311 295 314 298 302 313 325 326 321 327 319 303 312 302 296 291 276 275 268 226 240 257 242 231 252 223 162 237 262 272 276 280 283 285 283 279 276 274 265 263 269 271 263 258 257 269 266 267 270 270 274 274
277 281 277 276 277 286 290 297 298 294 280 264 264 275 276 272 274 282 283 287 280 280 285 281 285 299 297 301 310 310 310 306 314 307 304 313 305 299 313 316 314 322 314 307 298 302 305 305 304 289 276 267 253 255 272 264 254 259 234 129 259 273 273 281 287 283 279 282 284 283 277 270 267 269 262 258 262 264 265 268 275 271 272 273 280
277 279 279 276 276 281 283 286 287 283 277 267 268 269 266 270 271 267 274 279 277 271 269 265 273 282 293 302 303 304 308 308 303 299 303 300 295 302 306 311 316 313 312 317 318 318 323 319 313 299 279 273 265 268 268 264 267 266 283 78 284 275 282 274 275 279 287 288 294 293 295 281 262 261 264 267 270 266 267 266 266 279 276 271 262
279 277 283 281 278 277 280 283 280 277 275 274 269 269 272 266 258 274 287 284 272 269 275 284 284 281 300 305 305 304 304 305 300 289 294 297 296 297 303 308 309 313 311 308 313 317 319 312 302 291 277 274 272 268 269 267 270 274 306 354 269 271 274 280 283 290 286 290 290 289 286 280 280 268 264 264 271 281 270 270 274 286 277 277 282
272 277 281 280 276 275 274 275 272 269 270 268 263 259 259 263 266 278 275 270 270 275 273 264 264 269 269 281 293 297 301 300 300 303 298 301 297 298 309 314 306 305 305 309 310 312 317 309 303 294 282 274 271 270 275 279 275 295 298 291 270 283 285 278 273 281 287 267 257 255 260 264 273 279 284 286 273 272 279 284 284 280 285 284 276
277 280 277 275 272 268 267 266 265 265 264 261 261 250 244 248 259 260 269 269 271 272 274 278 283 288 287 289 294 301 304 300 302 303 306 309 303 304 307 313 319 316 314 310 311 311 306 304 297 289 283 284 285 283 284 283 283 285 280 283 272 271 285 280 267 254 259 284 290 285 274 268 273 263 275 276 271 275 285 283 292 299 299 292 291
272 271 266 268 262 260 261 262 262 261 259 254 249 246 241 245 235 244 260 264 261 265 274 281 285 299 307 300 288 287 297 304 312 306 301 300 288 297 308 313 323 329 324 322 319 310 307 302 295 289 283 285 290 286 279 262 265 279 273 266 265 263 278 274 267 263 272 286 271 281 287 294 278 273 277 275 284 294 293 290 297 306 303 296 287
266 255 254 253 252 259 258 260 260 260 257 254 252 252 251 245 249 251 257 260 261 270 280 285 293 293 290 292 292 301 297 290 287 294 302 309 315 316 312 304 311 318 326 323 322 314 308 299 299 291 291 289 284 277 273 264 258 258 269 270 265 260 263 272 275 261 269 272 279 281 282 289 292 293 303 304 294 300 308 309 300 288 285 286 279
248 246 243 240 237 238 253 254 258 260 260 257 256 258 262 265 242 248 253 259 269 280 279 281 288 305 292 287 297 289 286 300 299 279 283 294 303 311 313 310 307 304 314 310 316 315 315 304 299 294 296 292 275 275 279 282 268 264 263 265 266 269 279 268 261 269 267 265 263 282 299 299 288 296 305 311 314 306 299 288 284 286 284 nan nan
253 260 243 252 251 237 241 257 262 265 265 262 261 261 267 264 240 242 249 265 278 272 274 279 276 nan 281 277 276 287 293 293 301 304 298 293 287 290 299 309 312 311 307 300 304 317 320 314 305 303 299 292 295 290 279 271 269 268 272 264 262 261 269 270 265 276 nan 261 266 nan nan nan nan nan nan nan nan nan nan nan nan nan nan nan nan
268 273 272 272 271 267 265 265 266 269 266 270 271 272 268 256 226 224 266 272 264 269 269 264 266 269 273 283 292 297 303 311 310 313 315 307 311 305 299 285 303 311 306 305 303 302 304 303 304 302 297 295 293 282 288 286 283 275 268 268 257 258 262 249 264 268 nan nan nan nan nan nan nan nan nan nan nan nan nan nan nan nan nan nan nan
272 279 279 282 278 272 274 276 277 273 271 273 275 269 266 254 232 186 218 254 262 267 269 270 271 272 279 295 296 288 280 285 303 310 305 308 307 301 293 289 281 283 289 284 283 288 289 293 296 296 292 283 279 285 287 286 279 277 275 268 260 258 260 259 262 261 270 nan nan nan nan nan nan nan nan nan nan nan nan nan nan nan nan nan nan
252 260 268 268 267 268 274 280 280 280 285 289 282 280 270 258 256 189 248 264 272 273 272 271 269 274 280 275 282 295 299 307 299 298 303 301 298 301 295 293 284 277 278 282 288 285 284 282 283 284 284 284 285 287 283 279 275 276 281 271 264 257 250 249 254 258 257 256 nan nan nan nan nan nan nan nan nan nan nan nan nan nan nan nan nan
248 252 261 281 287 284 282 284 294 295 302 303 296 289 268 258 282 310 281 280 278 273 273 274 273 271 280 295 304 308 307 300 305 307 308 307 301 295 301 296 288 281 283 285 283 285 285 284 276 276 277 278 274 272 270 271 274 273 271 280 284 277 275 277 289 274 267 269 nan nan nan nan nan nan nan nan nan nan nan nan nan nan nan nan nan